Time,TemperatureF,DewpointF,PressureIn,WindDirection,WindDirectionDegrees,WindSpeedMPH,WindSpeedGustMPH,Humidity,HourlyPrecipIn,Conditions,Clouds,dailyrainin,SoftwareType,DateUTC
2013-03-26 00:03:00,33.0,32.0,29.69,WNW,284,0.0,0.0,96,0.00,,,0.00,,2013-03-26 04:03:00,
2013-03-26 00:12:00,33.0,32.0,29.69,WNW,284,0.0,0.0,96,0.00,,,0.00,,2013-03-26 04:12:00,
2013-03-26 00:23:00,32.0,31.0,29.70,WNW,296,0.0,2.0,96,0.00,,,0.00,,2013-03-26 04:23:00,
2013-03-26 00:33:00,32.0,31.0,29.70,WNW,296,0.0,1.0,96,0.00,,,0.00,,2013-03-26 04:33:00,
2013-03-26 00:43:00,32.0,31.0,29.70,WNW,296,0.0,1.0,96,0.00,,,0.00,,2013-03-26 04:43:00,
2013-03-26 00:53:00,32.0,31.0,29.71,WNW,296,0.0,2.0,96,0.00,,,0.00,,2013-03-26 04:53:00,
2013-03-26 01:02:00,32.0,31.0,29.71,WNW,296,0.0,2.0,96,0.00,,,0.00,,2013-03-26 05:02:00,
2013-03-26 01:12:00,32.0,31.0,29.71,WNW,296,0.0,2.0,96,0.00,,,0.00,,2013-03-26 05:12:00,
2013-03-26 01:22:00,32.0,31.0,29.72,WNW,296,0.0,0.0,96,0.00,,,0.00,,2013-03-26 05:22:00,
2013-03-26 01:32:00,32.0,31.0,29.72,WNW,296,0.0,2.0,96,0.00,,,0.00,,2013-03-26 05:32:00,
2013-03-26 01:42:00,32.0,31.0,29.72,WNW,296,0.0,2.0,96,0.00,,,0.00,,2013-03-26 05:42:00,
2013-03-26 01:52:00,32.0,31.0,29.73,WNW,296,0.0,2.0,96,0.00,,,0.00,,2013-03-26 05:52:00,
2013-03-26 02:02:00,32.0,31.0,29.73,WNW,296,0.0,2.0,96,0.00,,,0.00,,2013-03-26 06:02:00,
2013-03-26 02:12:00,32.0,31.0,29.73,WNW,296,0.0,2.0,96,0.00,,,0.00,,2013-03-26 06:12:00,
2013-03-26 02:22:00,32.0,31.0,29.73,WNW,295,0.0,3.0,96,0.00,,,0.00,,2013-03-26 06:22:00,
2013-03-26 02:32:00,32.0,31.0,29.73,WNW,295,0.0,3.0,96,0.00,,,0.00,,2013-03-26 06:32:00,
2013-03-26 02:42:00,32.0,31.0,29.73,WNW,295,0.0,3.0,96,0.00,,,0.00,,2013-03-26 06:42:00,
2013-03-26 02:52:00,32.0,31.0,29.74,West,273,1.0,5.0,96,0.00,,,0.00,,2013-03-26 06:52:00,
2013-03-26 03:02:00,32.0,31.0,29.74,West,274,1.0,4.0,96,0.00,,,0.00,,2013-03-26 07:02:00,
2013-03-26 03:12:00,32.0,31.0,29.74,West,274,1.0,4.0,96,0.00,,,0.00,,2013-03-26 07:12:00,
2013-03-26 03:22:00,32.0,31.0,29.75,West,278,1.0,9.0,96,0.00,,,0.00,,2013-03-26 07:22:00,
2013-03-26 03:33:00,32.0,31.0,29.75,West,274,0.0,6.0,96,0.00,,,0.00,,2013-03-26 07:33:00,
2013-03-26 03:42:00,32.0,31.0,29.75,West,274,0.0,6.0,96,0.00,,,0.00,,2013-03-26 07:42:00,
2013-03-26 03:53:00,31.0,30.0,29.75,West,271,0.0,5.0,95,0.00,,,0.00,,2013-03-26 07:53:00,
2013-03-26 04:02:00,31.0,30.0,29.75,West,277,0.0,6.0,95,0.00,,,0.00,,2013-03-26 08:02:00,
2013-03-26 04:12:00,31.0,30.0,29.75,West,277,0.0,6.0,95,0.00,,,0.00,,2013-03-26 08:12:00,
2013-03-26 04:22:00,31.0,30.0,29.76,West,274,1.0,4.0,95,0.00,,,0.00,,2013-03-26 08:22:00,
2013-03-26 04:32:00,31.0,30.0,29.76,WSW,253,3.0,4.0,95,0.00,,,0.00,,2013-03-26 08:32:00,
2013-03-26 04:42:00,31.0,30.0,29.76,WSW,253,3.0,4.0,95,0.00,,,0.00,,2013-03-26 08:42:00,
2013-03-26 04:52:00,31.0,30.0,29.76,West,273,3.0,5.0,95,0.00,,,0.00,,2013-03-26 08:52:00,
2013-03-26 05:02:00,31.0,29.0,29.76,WSW,257,1.0,11.0,94,0.00,,,0.00,,2013-03-26 09:02:00,
2013-03-26 05:12:00,31.0,29.0,29.76,WSW,257,1.0,11.0,94,0.00,,,0.00,,2013-03-26 09:12:00,
2013-03-26 05:22:00,31.0,29.0,29.78,WNW,288,1.0,4.0,94,0.00,,,0.00,,2013-03-26 09:22:00,
2013-03-26 05:33:00,31.0,29.0,29.78,West,271,1.0,3.0,94,0.00,,,0.00,,2013-03-26 09:33:00,
2013-03-26 05:43:00,31.0,29.0,29.78,West,271,1.0,3.0,94,0.00,,,0.00,,2013-03-26 09:43:00,
2013-03-26 05:52:00,31.0,29.0,29.78,West,272,0.0,3.0,94,0.00,,,0.00,,2013-03-26 09:52:00,
2013-03-26 06:03:00,31.0,29.0,29.78,West,272,0.0,2.0,94,0.00,,,0.00,,2013-03-26 10:03:00,
2013-03-26 06:12:00,31.0,29.0,29.78,West,272,0.0,2.0,94,0.00,,,0.00,,2013-03-26 10:12:00,
2013-03-26 06:22:00,31.0,29.0,29.79,WSW,250,1.0,3.0,94,0.00,,,0.00,,2013-03-26 10:22:00,
2013-03-26 06:32:00,31.0,29.0,29.79,WSW,250,0.0,3.0,94,0.00,,,0.00,,2013-03-26 10:32:00,
2013-03-26 06:42:00,31.0,29.0,29.79,WSW,250,0.0,3.0,94,0.00,,,0.00,,2013-03-26 10:42:00,
2013-03-26 06:53:00,31.0,29.0,29.80,WSW,252,2.0,3.0,94,0.00,,,0.00,,2013-03-26 10:53:00,
2013-03-26 07:03:00,31.0,29.0,29.80,WSW,253,0.0,5.0,94,0.00,,,0.00,,2013-03-26 11:03:00,
2013-03-26 07:12:00,31.0,29.0,29.80,WSW,253,0.0,5.0,94,0.00,,,0.00,,2013-03-26 11:12:00,
2013-03-26 07:22:00,31.0,29.0,29.81,WSW,254,0.0,1.0,93,0.00,,,0.00,,2013-03-26 11:22:00,
2013-03-26 07:32:00,31.0,29.0,29.81,WSW,254,1.0,3.0,93,0.00,,,0.00,,2013-03-26 11:32:00,
2013-03-26 07:42:00,31.0,29.0,29.81,WSW,254,1.0,3.0,93,0.00,,,0.00,,2013-03-26 11:42:00,
2013-03-26 07:52:00,31.0,29.0,29.83,WSW,254,1.0,3.0,93,0.00,,,0.00,,2013-03-26 11:52:00,
2013-03-26 08:03:00,31.0,29.0,29.83,WSW,254,1.0,3.0,93,0.00,,,0.00,,2013-03-26 12:03:00,
2013-03-26 08:12:00,31.0,29.0,29.83,WNW,283,1.0,3.0,93,0.00,,,0.00,,2013-03-26 12:12:00,
2013-03-26 08:22:00,31.0,29.0,29.84,West,259,1.0,4.0,93,0.00,,,0.00,,2013-03-26 12:22:00,
2013-03-26 08:32:00,31.0,29.0,29.84,West,259,2.0,3.0,92,0.00,,,0.00,,2013-03-26 12:32:00,
2013-03-26 08:42:00,31.0,29.0,29.84,West,259,2.0,3.0,92,0.00,,,0.00,,2013-03-26 12:42:00,
2013-03-26 08:52:00,32.0,30.0,29.85,West,259,2.0,4.0,92,0.00,,,0.00,,2013-03-26 12:52:00,
2013-03-26 09:03:00,32.0,30.0,29.85,West,260,4.0,6.0,91,0.00,,,0.00,,2013-03-26 13:03:00,
2013-03-26 09:12:00,32.0,30.0,29.85,West,260,4.0,6.0,91,0.00,,,0.00,,2013-03-26 13:12:00,
2013-03-26 09:22:00,32.0,29.0,29.86,West,268,2.0,7.0,90,0.00,,,0.00,,2013-03-26 13:22:00,
2013-03-26 09:32:00,32.0,30.0,29.86,West,275,4.0,9.0,94,0.00,,,0.00,,2013-03-26 13:32:00,
2013-03-26 09:42:00,32.0,30.0,29.86,West,275,4.0,9.0,94,0.00,,,0.00,,2013-03-26 13:42:00,
2013-03-26 09:52:00,32.0,29.0,29.87,West,261,3.0,9.0,89,0.00,,,0.00,,2013-03-26 13:52:00,
2013-03-26 10:02:00,33.0,30.0,29.87,West,278,1.0,5.0,89,0.00,,,0.00,,2013-03-26 14:02:00,
2013-03-26 10:12:00,33.0,30.0,29.87,West,278,1.0,5.0,89,0.00,,,0.00,,2013-03-26 14:12:00,
2013-03-26 10:22:00,33.0,30.0,29.88,West,279,2.0,7.0,88,0.00,,,0.00,,2013-03-26 14:22:00,
2013-03-26 10:32:00,33.0,30.0,29.88,West,261,3.0,7.0,88,0.00,,,0.00,,2013-03-26 14:32:00,
2013-03-26 10:42:00,33.0,30.0,29.88,West,261,3.0,7.0,88,0.00,,,0.00,,2013-03-26 14:42:00,
2013-03-26 10:53:00,34.0,31.0,29.89,West,280,2.0,10.0,87,0.00,,,0.00,,2013-03-26 14:53:00,
2013-03-26 11:02:00,34.0,30.0,29.89,West,276,4.0,11.0,86,0.00,,,0.00,,2013-03-26 15:02:00,
2013-03-26 11:12:00,34.0,30.0,29.89,West,276,4.0,11.0,86,0.00,,,0.00,,2013-03-26 15:12:00,
2013-03-26 11:22:00,34.0,30.0,29.89,West,281,7.0,16.0,84,0.00,,,0.00,,2013-03-26 15:22:00,
2013-03-26 11:33:00,35.0,31.0,29.89,West,281,2.0,11.0,84,0.00,,,0.00,,2013-03-26 15:33:00,
2013-03-26 11:43:00,35.0,31.0,29.89,West,281,2.0,11.0,84,0.00,,,0.00,,2013-03-26 15:43:00,
2013-03-26 11:53:00,35.0,30.0,29.90,West,278,7.0,12.0,83,0.00,,,0.00,,2013-03-26 15:53:00,
2013-03-26 12:03:00,35.0,30.0,29.90,WNW,286,4.0,11.0,82,0.00,,,0.00,,2013-03-26 16:03:00,
2013-03-26 12:13:00,35.0,30.0,29.90,WNW,286,4.0,11.0,82,0.00,,,0.00,,2013-03-26 16:13:00,
2013-03-26 12:22:00,36.0,31.0,29.90,West,271,6.0,11.0,81,0.00,,,0.00,,2013-03-26 16:22:00,
2013-03-26 12:32:00,36.0,30.0,29.90,WSW,250,4.0,12.0,80,0.00,,,0.00,,2013-03-26 16:32:00,
2013-03-26 12:42:00,36.0,30.0,29.90,WSW,250,4.0,12.0,80,0.00,,,0.00,,2013-03-26 16:42:00,
2013-03-26 12:54:00,37.0,31.0,29.90,West,279,4.0,9.0,78,0.00,,,0.00,,2013-03-26 16:54:00,
2013-03-26 13:02:00,37.0,30.0,29.90,West,267,4.0,12.0,77,0.00,,,0.00,,2013-03-26 17:02:00,
2013-03-26 13:12:00,37.0,30.0,29.90,West,267,4.0,12.0,77,0.00,,,0.00,,2013-03-26 17:12:00,
2013-03-26 13:23:00,38.0,31.0,29.91,WSW,258,6.0,10.0,75,0.00,,,0.00,,2013-03-26 17:23:00,
2013-03-26 13:32:00,37.0,29.0,29.91,West,279,6.0,12.0,74,0.00,,,0.00,,2013-03-26 17:32:00,
2013-03-26 13:42:00,37.0,29.0,29.91,West,279,6.0,12.0,74,0.00,,,0.00,,2013-03-26 17:42:00,
2013-03-26 13:53:00,38.0,30.0,29.91,WSW,256,7.0,14.0,74,0.00,,,0.00,,2013-03-26 17:53:00,
2013-03-26 14:02:00,38.0,30.0,29.91,West,277,4.0,16.0,73,0.00,,,0.00,,2013-03-26 18:02:00,
2013-03-26 14:12:00,38.0,30.0,29.91,West,277,4.0,16.0,73,0.00,,,0.00,,2013-03-26 18:12:00,
2013-03-26 14:23:00,38.0,30.0,29.91,WSW,255,9.0,17.0,72,0.00,,,0.00,,2013-03-26 18:23:00,
2013-03-26 14:34:00,38.0,29.0,29.91,West,275,6.0,13.0,71,0.00,,,0.00,,2013-03-26 18:34:00,
2013-03-26 14:42:00,38.0,29.0,29.91,West,275,6.0,13.0,71,0.00,,,0.00,,2013-03-26 18:42:00,
2013-03-26 14:53:00,38.0,29.0,29.92,WNW,288,4.0,11.0,71,0.00,,,0.00,,2013-03-26 18:53:00,
2013-03-26 15:03:00,38.0,29.0,29.92,West,271,4.0,13.0,71,0.00,,,0.00,,2013-03-26 19:03:00,
2013-03-26 15:12:00,38.0,29.0,29.92,West,271,4.0,13.0,71,0.00,,,0.00,,2013-03-26 19:12:00,
2013-03-26 15:22:00,38.0,30.0,29.91,NW,305,2.0,10.0,72,0.00,,,0.00,,2013-03-26 19:22:00,
2013-03-26 15:32:00,39.0,30.0,29.91,West,272,4.0,11.0,71,0.00,,,0.00,,2013-03-26 19:32:00,
2013-03-26 15:42:00,39.0,30.0,29.91,West,272,4.0,11.0,71,0.00,,,0.00,,2013-03-26 19:42:00,
2013-03-26 15:53:00,39.0,30.0,29.91,West,279,3.0,17.0,71,0.00,,,0.00,,2013-03-26 19:53:00,
2013-03-26 16:02:00,39.0,30.0,29.91,West,277,6.0,14.0,70,0.00,,,0.00,,2013-03-26 20:02:00,
2013-03-26 16:13:00,39.0,30.0,29.91,West,277,6.0,14.0,70,0.00,,,0.00,,2013-03-26 20:13:00,
2013-03-26 16:22:00,39.0,30.0,29.91,West,275,2.0,12.0,71,0.00,,,0.00,,2013-03-26 20:22:00,
2013-03-26 16:32:00,39.0,31.0,29.91,West,269,7.0,15.0,72,0.00,,,0.00,,2013-03-26 20:32:00,
2013-03-26 16:43:00,39.0,31.0,29.91,West,269,7.0,15.0,72,0.00,,,0.00,,2013-03-26 20:43:00,
2013-03-26 16:51:00,38.0,31.0,29.92,West,272,4.0,12.0,75,0.00,,,0.00,,2013-03-26 20:51:00,
2013-03-26 16:52:00,38.0,30.0,29.92,West,259,9.0,17.0,74,0.00,,,0.00,,2013-03-26 20:52:00,
2013-03-26 17:02:00,38.0,31.0,29.92,WNW,290,5.0,16.0,75,0.00,,,0.00,,2013-03-26 21:02:00,
2013-03-26 17:12:00,38.0,31.0,29.92,WNW,290,5.0,16.0,75,0.00,,,0.00,,2013-03-26 21:12:00,
2013-03-26 17:22:00,38.0,31.0,29.92,West,272,4.0,12.0,75,0.00,,,0.00,,2013-03-26 21:22:00,
2013-03-26 17:33:00,38.0,31.0,29.92,West,272,4.0,12.0,75,0.00,,,0.00,,2013-03-26 21:33:00,
2013-03-26 17:43:00,38.0,31.0,29.92,West,272,4.0,12.0,75,0.00,,,0.00,,2013-03-26 21:43:00,
2013-03-26 17:52:00,37.0,31.0,29.93,West,268,4.0,10.0,78,0.00,,,0.00,,2013-03-26 21:52:00,
2013-03-26 18:12:00,37.0,31.0,29.93,West,268,4.0,10.0,78,0.00,,,0.00,,2013-03-26 22:12:00,
2013-03-26 18:22:00,37.0,31.0,29.93,West,268,4.0,10.0,78,0.00,,,0.00,,2013-03-26 22:22:00,
2013-03-26 18:33:00,37.0,31.0,29.93,West,268,4.0,10.0,78,0.00,,,0.00,,2013-03-26 22:33:00,
2013-03-26 18:42:00,37.0,31.0,29.93,West,268,4.0,10.0,78,0.00,,,0.00,,2013-03-26 22:42:00,
2013-03-26 19:23:00,37.0,30.0,29.96,West,269,2.0,10.0,77,0.00,,,0.00,,2013-03-26 23:23:00,
2013-03-26 19:32:00,37.0,30.0,29.96,West,272,5.0,12.0,76,0.00,,,0.00,,2013-03-26 23:32:00,
2013-03-26 19:43:00,37.0,30.0,29.96,West,272,5.0,12.0,76,0.00,,,0.00,,2013-03-26 23:43:00,
2013-03-26 19:53:00,36.0,29.0,29.96,West,277,0.0,7.0,77,0.00,,,0.00,,2013-03-26 23:53:00,
2013-03-26 20:02:00,36.0,30.0,29.96,West,276,2.0,6.0,78,0.00,,,0.00,,2013-03-27 00:02:00,
2013-03-26 20:12:00,36.0,30.0,29.96,West,276,2.0,6.0,78,0.00,,,0.00,,2013-03-27 00:12:00,
2013-03-26 20:22:00,36.0,30.0,29.97,West,269,4.0,6.0,80,0.00,,,0.00,,2013-03-27 00:22:00,
2013-03-26 20:32:00,36.0,31.0,29.97,West,260,2.0,7.0,81,0.00,,,0.00,,2013-03-27 00:32:00,
2013-03-26 20:42:00,36.0,31.0,29.97,West,260,2.0,7.0,81,0.00,,,0.00,,2013-03-27 00:42:00,
2013-03-26 20:52:00,35.0,30.0,29.98,West,264,1.0,3.0,82,0.00,,,0.00,,2013-03-27 00:52:00,
2013-03-26 21:02:00,35.0,30.0,29.98,West,272,2.0,5.0,83,0.00,,,0.00,,2013-03-27 01:02:00,
2013-03-26 21:12:00,35.0,30.0,29.98,West,272,2.0,5.0,83,0.00,,,0.00,,2013-03-27 01:12:00,
2013-03-26 21:23:00,35.0,30.0,29.99,West,273,0.0,3.0,82,0.00,,,0.00,,2013-03-27 01:23:00,
2013-03-26 21:33:00,35.0,30.0,29.99,West,273,0.0,1.0,82,0.00,,,0.00,,2013-03-27 01:33:00,
2013-03-26 21:42:00,35.0,30.0,29.99,West,273,0.0,1.0,82,0.00,,,0.00,,2013-03-27 01:42:00,
2013-03-26 21:53:00,35.0,30.0,30.00,West,273,0.0,2.0,83,0.00,,,0.00,,2013-03-27 01:53:00,
2013-03-26 22:03:00,34.0,29.0,30.00,West,273,1.0,2.0,83,0.00,,,0.00,,2013-03-27 02:03:00,
2013-03-26 22:12:00,34.0,29.0,30.00,West,273,1.0,2.0,83,0.00,,,0.00,,2013-03-27 02:12:00,
2013-03-26 22:22:00,34.0,29.0,30.01,West,271,5.0,13.0,83,0.00,,,0.00,,2013-03-27 02:22:00,
2013-03-26 22:32:00,34.0,30.0,30.01,West,266,6.0,16.0,85,0.00,,,0.00,,2013-03-27 02:32:00,
2013-03-26 22:42:00,34.0,30.0,30.01,West,266,6.0,16.0,85,0.00,,,0.00,,2013-03-27 02:42:00,
2013-03-26 22:53:00,34.0,31.0,30.01,WSW,257,2.0,11.0,87,0.00,,,0.00,,2013-03-27 02:53:00,
2013-03-26 23:02:00,33.0,30.0,30.01,West,265,3.0,9.0,88,0.00,,,0.00,,2013-03-27 03:02:00,
2013-03-26 23:12:00,33.0,30.0,30.01,West,265,3.0,9.0,88,0.00,,,0.00,,2013-03-27 03:12:00,
2013-03-26 23:22:00,33.0,30.0,30.01,West,267,2.0,7.0,90,0.00,,,0.00,,2013-03-27 03:22:00,
2013-03-26 23:33:00,33.0,30.0,30.01,West,267,2.0,9.0,90,0.00,,,0.00,,2013-03-27 03:33:00,
2013-03-26 23:42:00,33.0,30.0,30.01,West,267,2.0,9.0,90,0.00,,,0.00,,2013-03-27 03:42:00,
2013-03-26 23:53:00,33.0,30.0,30.01,WSW,254,3.0,6.0,90,0.00,,,0.00,,2013-03-27 03:53:00,